User: anonymous   Login
Location: Klickitat County Star Party
(45.8642°N, 120.6771°W)
Time: 06:34:04
(UTC-07:00)
Language:

SO-50 - Orbit

View from above orbital plane
View from above orbital plane
View from above satellite
View from above satellite

Ground track
Ground track

The orbit data is extracted from the following two-line orbital elements,

1 27607U 02058C   19289.43931036  .00000001  00000-0  20988-4 0  9997
2 27607  64.5563  43.4792 0074946 233.2234 126.1975 14.75579345904702
Epoch (UTC): 16 October 2019 10:32:36
Eccentricity: 0.0074946
inclination: 64.5563°
perigee height: 590 km
apogee height: 696 km
right ascension of ascending node: 43.4792°
argument of perigee: 233.2234°
revolutions per day: 14.75579345
mean anomaly at epoch: 126.1975°
orbit number at epoch: 90470

The dashed part of the orbit path shows where the satellite is in the earth's shadow,  

DLR